Regional Weather Roundup
Issued by NWS

Home | Current Version | Previous Version | Graphics & Text | Print | Product List | Glossary On
Versions: 1 2 3 4 5 6 7 8 9 10 11 12 13 14 15 16 17 18 19 20 21 22 23 24 25 26 27 28 29 30 31 32 33 34 35 36 37 38 39 40 41 42 43 44 45 46 47 48 49 50
000
ASUS43 KMKX 180821
RWRWI

WISCONSIN REGIONAL WEATHER ROUNDUP
NATIONAL WEATHER SERVICE MILWAUKEE/SULLIVAN WI
300 AM CDT SAT APR 18 2015

NOTE: "FAIR" INDICATES FEW OR NO CLOUDS BELOW 12,000 FEET WITH NO
SIGNIFICANT WEATHER AND/OR OBSTRUCTIONS TO VISIBILITY.

WIZ001-002-006>008-014>016-023>028-180900-
NORTHWEST WISCONSIN

CITY           SKY/WX    TMP DP  RH WIND       PRES   REMARKS
SUPERIOR ARPT  CLEAR     45  32  61 E13G22    30.15R
ASHLAND        CLEAR     41  32  70 NE8       30.17R
HAYWARD        CLEAR     51  28  41 NE15G24   30.11R
SIREN          CLEAR     52  25  34 NE5       30.10R
CUMBERLAND     CLEAR     50  27  40 NE10      30.08R
RICE LAKE      CLEAR     47  32  56 NE9       30.09R
CHETEK         CLEAR     40  37  88 CALM      30.07R
LADYSMITH      CLEAR     52  29  40 N12       30.09R
EAU CLAIRE     CLEAR     46  35  65 CALM      30.04R
MENOMONIE      CLEAR     42  36  77 NW3       30.05S
NEW RICHMOND   CLEAR     39  34  80 NE7       30.07S WCI  34
OSCEOLA        CLEAR     40  33  75 CALM      30.10S
$$

WIZ003>005-009-010-017-018-180900-
NORTH CENTRAL WISCONSIN

CITY           SKY/WX    TMP DP  RH WIND       PRES   REMARKS
MANITOWISH WTR CLEAR     45  32  59 NE12G18   30.11R
ARBOR VITAE    CLEAR     49  32  51 NE12      30.10R
WOODRUFF       CLEAR     49  32  51 NE12      30.10R
RHINELANDER    CLEAR     49  28  44 NE10      30.09R
EAGLE RIVER    CLEAR     46  28  49 N9        30.09R
LAND O LAKES   CLEAR     46  32  58 N12       30.11R
PHILLIPS       CLEAR     48  29  48 CALM      30.09R
TOMAHAWK       CLEAR     46  28  50 CALM      30.08R
MEDFORD        CLEAR     47  30  51 NE10      30.06R
MERRILL        CLEAR     50  30  46 NE10      30.06R
$$

WIZ029-030-035-036-043>047-180900-
CENTRAL WISCONSIN

CITY           SKY/WX    TMP DP  RH WIND       PRES   REMARKS
WAUSAU         CLEAR     49  38  65 N6        30.03R
MOSINEE        CLEAR     52  32  46 N7        30.03F
MARSHFIELD     CLEAR     50  33  52 NW6       30.04R
STEVENS POINT  CLEAR     38  37  94 CALM      30.04R
WAUPACA        CLEAR     46  41  85 CALM      30.02R
WAUTOMA        PTCLDY    44  42  93 CALM      30.03S
WISC RAPIDS    PTCLDY    45  35  68 CALM      30.04S
CAMP DOUGLAS   PTCLDY    44  44 100 W3        30.03S
$$

WIZ011>013-019>022-031-037>040-048>050-180900-
NORTHEAST WISCONSIN

CITY           SKY/WX    TMP DP  RH WIND       PRES   REMARKS
ANTIGO         CLEAR     48  32  53 NE10      30.06R
SHAWANO        CLEAR     46  43  88 CALM      30.02R
OCONTO         CLEAR     36  36 100 CALM      30.01R
STURGEON BAY   CLEAR     43  36  75 N13       30.06R
GREEN BAY      CLEAR     49  43  80 CALM      30.01R
MANITOWOC      PTCLDY    54  43  66 NW5       30.00R
APPLETON       PTCLDY    54  36  50 NW8       30.01R
CLINTONVILLE   CLEAR     45  37  76 NW3       30.01S
OSHKOSH        MOCLDY    55  42  61 W8        30.01R
$$

WIZ032>034-041-042-053>061-180900-
SOUTHWEST WISCONSIN

CITY           SKY/WX    TMP DP  RH WIND       PRES   REMARKS
LA CROSSE      PTCLDY    53  49  86 CALM      30.03S
SPARTA         CLEAR     41  39  93 CALM      30.05S
VIROQUA        PTCLDY    58  36  42 CALM      30.05R
BOSCOBEL       CLEAR     46  42  86 CALM      30.04R
PRAIRIE DU CHI PTCLDY    50  44  78 CALM      30.04R
PLATTEVILLE    MOCLDY    57  44  62 CALM      30.03R
$$

WIZ056-057-062-063-064-067-068-180900-
SOUTH CENTRAL WISCONSIN

CITY           SKY/WX    TMP DP  RH WIND       PRES   REMARKS
REEDSBURG      PTCLDY    50  46  87 CALM      30.03S
BARABOO/DELLS  PTCLDY    49  41  75 CALM      30.03S
LONE ROCK      CLEAR     47  42  83 W3        30.03R
MINERAL POINT  PTCLDY    59  41  51 N7        30.04R
MADISON        CLEAR     51  45  79 CALM      30.02R
MIDDLETON      CLEAR     51  43  75 CALM      30.03R
WATERTOWN      PTCLDY    46  45  95 CALM      30.01S
MONROE         PTCLDY    63  43  48 N5        30.02R
JANESVILLE     PTCLDY    52  43  71 CALM      30.01S
$$

WIZ051-052-058>065-066-070>072-180900-
SOUTHEAST WISCONSIN

CITY           SKY/WX    TMP DP  RH WIND       PRES   REMARKS
MILWAUKEE      PTCLDY    50  41  71 CALM      30.00S
WAUKESHA       PTCLDY    46  43  87 W3        30.02S
MILWAUKEE/TIMM MOCLDY    52  41  66 CALM      30.01S
RACINE         CLEAR     54  44  69 W8        30.01S HAZE
BURLINGTON     CLEAR     43  42  95 CALM      30.01S
KENOSHA        CLEAR     50  44  80 W5        30.00S
FOND DU LAC    MOCLDY    48  42  80 S3        30.01R
SHEBOYGAN      MOCLDY    51  42  71 W3        30.00S
WEST BEND      MOCLDY    48  41  76 CALM      30.01S
JUNEAU         MOCLDY    52  43  71 CALM      30.03S
$$

LSZ147-162-180900-
LAKE SUPERIOR

STATION/POSITION TIME  TEMP    WIND        PRES    WAVE
                       AIR SEA DIR/SP/G            HT/PER
                 (UTC) (F)     (DEG/KT/KT) (MB)    (FT/S)
DEVILS ISLAND    0800   40      40/ 12/ 13 1022.6R
PORT WING        0700   44      30/ 16/ 20 1020.3R
SAXON HARBOR     0740   43      40/ 12/ 15 1020.7R
$$

LMZ867-665-643>646-180900-
LAKE MICHIGAN

STATION/POSITION TIME  TEMP    WIND        PRES    WAVE
                       AIR SEA DIR/SP/G            HT/PER
                 (UTC) (F)     (DEG/KT/KT) (MB)    (FT/S)
CHAMBERS ISLAND  0700   38     200/  3/  4 1015.6S
NORTHPORT PIER   0700   41      CALM  /  7 1015.2S
SISTER BAY       0717   42        CALM       N/A
KEWAUNEE LAKESHO 0800   46      CALM  /  1 1015.1R
SHEBOYGAN LAKESH 0800   59     280/  9/ 11 1016.2R
PORT WASHINGTON  0730          290/  8/ 15 1016.3F
MILWAUKEE LAKESH 0800   53     300/  2/  4   N/A
KENOSHA   LAKESH 0800   58     260/  6/  7 1015.9S
$$

TC  - TEMPERATURE IN CELSIUS
VSB - VISIBILITY IN STATUTE MILES
WCI - WIND CHILL INDEX
HX  - HEAT INDEX




USA.gov is the U.S. government's official web portal to all federal, state and local government web resources and services.